Latest Weather Observations for Bundaberg

IDQ60801

Issued at 6:05 pm EST Saturday 1 November 2014 (issued every 30 minutes, with the page automatically refreshed every 10 minutes)

About weather observations | Map of weather stations | Latest weather observations for QLD | Other Formats
Station Details ID: 039128 Name: BUNDABERG AERO Lat: -24.91 Lon: 152.32 Height: 30.82 m
Data from the previous 72 hours. | See also: Recent months at Bundaberg
Date/Time
EST
Temp
°C
App
Temp
°C
Dew
Point
Rel
Hum
%
Delta-T
°C
Wind Press
QNH
hPa
Press
MSL
hPa
Rain
since 9 am
mm
Dir
 
Spd
km/h
Gust
km/h
Spd
kts
Gust
kts
01/06:00pm 23.5 21.2 18.4 73 3.2 N 28 39 15 21 1012.4 1012.2 0.0
01/05:30pm 24.2 20.9 17.9 68 3.9 N 32 39 17 21 1012.1 1011.9 0.0
01/05:00pm 24.8 20.4 17.5 64 4.6 N 37 46 20 25 1011.8 1011.6 0.0
01/04:30pm 25.4 21.4 17.6 62 4.9 N 35 50 19 27 1011.8 1011.6 0.0
01/04:00pm 26.1 22.5 17.2 58 5.6 N 32 43 17 23 1011.7 1011.5 0.0
01/03:30pm 26.9 23.2 17.4 56 6.0 N 33 43 18 23 1011.8 1011.6 0.0
01/03:00pm 26.6 22.8 16.8 55 6.1 N 32 41 17 22 1011.9 1011.7 0.0
01/02:30pm 27.4 23.3 16.4 51 6.8 N 33 46 18 25 1012.3 1012.1 0.0
01/02:00pm 27.4 23.7 17.0 53 6.5 N 32 43 17 23 1012.6 1012.4 0.0
01/01:30pm 27.6 24.6 16.9 52 6.7 N 28 54 15 29 1013.5 1013.3 0.0
01/01:23pm 27.7 24.5 17.2 52 6.6 N 30 54 16 29 1013.6 1013.4 0.0
01/01:00pm 27.6 24.5 17.5 54 6.4 N 30 41 16 22 1013.8 1013.6 0.0
01/12:30pm 27.4 25.3 18.1 57 5.9 N 26 37 14 20 1014.3 1014.1 0.0
01/12:00pm 27.1 25.1 17.3 55 6.1 N 24 35 13 19 1015.0 1014.8 0.0
01/11:30am 27.4 24.7 16.7 52 6.7 N 26 35 14 19 1015.5 1015.3 0.0
01/11:00am 26.6 24.0 16.8 55 6.1 N 26 37 14 20 1015.9 1015.7 0.0
01/10:30am 27.8 25.5 17.6 53 6.4 N 26 39 14 21 1016.2 1016.0 0.0
01/10:00am 26.3 23.9 17.4 58 5.6 N 26 35 14 19 1016.3 1016.1 0.0
01/09:30am 27.5 25.3 17.9 55 6.1 N 26 33 14 18 1016.5 1016.4 0.0
01/09:00am 27.5 26.3 18.5 58 5.7 N 22 28 12 15 1016.9 1016.8 0.0
01/08:30am 25.8 24.4 18.7 65 4.5 N 24 30 13 16 1016.8 1016.7 0.0
01/08:00am 25.0 23.9 17.7 64 4.6 N 20 28 11 15 1016.5 1016.4 0.0
01/07:30am 24.9 24.3 18.8 69 3.9 NNE 20 32 11 17 1016.3 1016.2 0.0
01/07:00am 24.4 24.4 19.0 72 3.4 N 17 24 9 13 1016.1 1016.0 0.0
01/06:30am 23.6 24.4 19.1 76 2.9 N 13 19 7 10 1016.0 1015.9 0.0
01/06:00am 22.3 23.6 19.3 83 1.9 N 11 15 6 8 1015.4 1015.3 0.0
01/05:30am 21.2 22.7 18.9 87 1.4 N 9 11 5 6 1015.2 1015.1 0.0
01/05:00am 20.6 22.1 18.9 90 1.1 N 9 11 5 6 1015.1 1015.0 0.0
01/04:30am 18.9 20.8 17.6 92 0.8 NNE 4 7 2 4 1015.0 1014.9 0.0
01/04:00am 19.2 21.9 17.7 91 0.9 CALM 0 0 0 0 1014.9 1014.8 0.0
01/03:30am 19.5 21.4 17.6 89 1.2 S 4 7 2 4 1014.8 1014.7 0.0
01/03:00am 20.7 23.2 19.0 90 1.1 NW 4 7 2 4 1014.7 1014.6 0.0
01/02:30am 20.2 21.4 18.3 89 1.2 NNW 9 9 5 5 1014.5 1014.4 0.0
01/02:00am 20.4 22.1 18.5 89 1.2 N 7 9 4 5 1014.7 1014.6 0.0
01/01:30am 20.4 22.0 18.3 88 1.3 NNW 7 9 4 5 1015.0 1014.9 0.0
01/01:00am 21.8 22.9 18.8 83 1.9 N 11 15 6 8 1015.1 1015.0 0.0
01/12:30am 21.7 23.2 18.9 84 1.8 N 9 11 5 6 1015.5 1015.4 0.0
01/12:00am 21.3 23.2 19.0 87 1.5 N 7 11 4 6 1015.8 1015.7 0.0
 
Date/Time
EST
Temp
°C
App
Temp
°C
Dew
Point
Rel
Hum
%
Delta-T
°C
Wind Press
QNH
hPa
Press
MSL
hPa
Rain
since 9 am
mm
Dir
 
Spd
km/h
Gust
km/h
Spd
kts
Gust
kts
31/11:30pm 21.5 22.9 18.7 84 1.8 N 9 11 5 6 1016.0 1015.9 0.0
31/11:00pm 21.8 22.9 18.8 83 1.9 N 11 13 6 7 1016.3 1016.2 0.0
31/10:30pm 22.0 22.8 19.0 83 1.9 N 13 15 7 8 1016.3 1016.2 0.0
31/10:00pm 21.8 22.8 18.6 82 2.0 N 11 13 6 7 1016.5 1016.4 0.0
31/09:30pm 21.9 23.2 18.5 81 2.1 NNE 9 11 5 6 1016.5 1016.4 0.0
31/09:00pm 22.4 23.9 18.8 80 2.3 N 9 13 5 7 1016.3 1016.2 0.0
31/08:30pm 22.6 23.4 19.0 80 2.3 N 13 17 7 9 1016.2 1016.1 0.0
31/08:00pm 22.8 23.5 18.8 78 2.5 N 13 19 7 10 1015.9 1015.8 0.0
31/07:30pm 22.9 23.5 18.7 77 2.7 N 13 17 7 9 1015.6 1015.5 0.0
31/07:00pm 23.0 23.2 18.5 76 2.8 NNE 15 19 8 10 1015.3 1015.2 0.0
31/06:30pm 23.4 23.1 18.3 73 3.2 N 17 20 9 11 1015.2 1015.1 0.0
31/06:00pm 23.9 23.1 18.1 70 3.6 NNE 19 24 10 13 1015.0 1014.9 0.0
31/05:30pm 24.7 23.1 17.4 64 4.5 NNE 22 28 12 15 1014.7 1014.6 0.0
31/05:00pm 25.4 23.5 17.6 62 4.9 NNE 24 30 13 16 1014.5 1014.4 0.0
31/04:30pm 25.4 23.5 17.6 62 4.9 NNE 24 33 13 18 1014.4 1014.3 0.0
31/04:00pm 26.2 24.7 17.6 59 5.4 N 22 28 12 15 1014.2 1014.1 0.0
31/03:30pm 27.1 25.9 18.4 59 5.5 N 22 30 12 16 1014.3 1014.2 0.0
31/03:00pm 27.6 25.9 18.0 55 6.1 NNE 24 32 13 17 1014.3 1014.2 0.0
31/02:30pm 27.8 26.1 17.3 52 6.6 NNE 22 30 12 16 1014.3 1014.2 0.0
31/02:00pm 26.7 24.9 16.9 55 6.1 NNE 22 32 12 17 1014.5 1014.4 0.0
31/01:30pm 27.4 25.9 17.6 55 6.2 NNE 22 28 12 15 1014.8 1014.7 0.0
31/01:00pm 27.8 26.5 17.3 52 6.6 NNE 20 33 11 18 1015.2 1015.1 0.0
31/12:30pm 28.2 27.0 18.3 55 6.3 N 22 28 12 15 1015.5 1015.4 0.0
31/12:00pm 27.2 25.8 17.1 54 6.3 N 20 30 11 16 1015.7 1015.6 0.0
31/11:30am 28.8 28.1 18.3 53 6.7 N 19 28 10 15 1016.1 1016.0 0.0
31/11:00am 26.8 24.9 17.6 57 5.8 N 24 30 13 16 1016.4 1016.3 0.0
31/10:30am 27.3 27.1 17.5 55 6.2 NNE 15 28 8 15 1016.6 1016.5 0.0
31/10:00am 27.2 26.4 17.9 56 5.9 NNE 19 28 10 15 1016.8 1016.7 0.0
31/09:30am 26.1 26.4 18.0 61 5.1 N 13 19 7 10 1017.2 1017.1 0.0
31/09:00am 25.9 26.1 18.6 64 4.6 N 15 20 8 11 1017.1 1017.0 0.0
31/08:30am 26.1 26.1 18.0 61 5.1 NNE 15 20 8 11 1017.1 1017.0 0.0
31/08:00am 24.5 25.7 19.1 72 3.4 N 11 15 6 8 1017.1 1017.0 0.0
31/07:30am 24.3 26.3 20.0 77 2.8 NNW 9 17 5 9 1017.4 1017.3 0.0
31/07:00am 23.5 26.1 20.0 81 2.3 NW 6 11 3 6 1016.9 1016.8 0.0
31/06:30am 21.3 24.9 19.8 91 1.0 CALM 0 0 0 0 1016.9 1016.8 0.0
31/06:00am 19.8 21.8 19.1 96 0.4 SSW 7 9 4 5 1016.5 1016.4 0.0
31/05:30am 19.0 21.5 18.2 95 0.5 S 2 9 1 5 1015.9 1015.8 0.0
31/05:00am 18.8 21.2 18.0 95 0.5 ESE 2 6 1 3 1015.4 1015.3 0.0
31/04:30am 18.6 20.8 17.4 93 0.7 SSE 2 9 1 5 1015.4 1015.3 0.0
31/04:00am 19.3 22.3 18.5 95 0.5 CALM 0 0 0 0 1015.4 1015.3 0.0
31/03:30am 19.4 22.3 18.2 93 0.7 CALM 0 0 0 0 1015.1 1015.0 0.0
31/03:00am 19.4 22.3 18.2 93 0.7 CALM 0 0 0 0 1015.0 1014.9 0.0
31/02:30am 19.6 22.6 18.4 93 0.7 CALM 0 0 0 0 1015.1 1015.0 0.0
31/02:00am 19.8 22.7 18.3 91 0.9 CALM 0 0 0 0 1014.8 1014.7 0.0
31/01:30am 20.0 22.9 18.1 89 1.2 CALM 0 0 0 0 1015.1 1015.0 0.0
31/01:00am 21.1 24.1 19.2 89 1.2 WNW 2 6 1 3 1015.6 1015.5 0.0
31/12:30am 21.4 23.9 19.1 87 1.5 NW 4 7 2 4 1015.7 1015.6 0.0
31/12:00am 22.1 23.9 19.6 86 1.6 N 9 13 5 7 1015.4 1015.3 0.0
 
Date/Time
EST
Temp
°C
App
Temp
°C
Dew
Point
Rel
Hum
%
Delta-T
°C
Wind Press
QNH
hPa
Press
MSL
hPa
Rain
since 9 am
mm
Dir
 
Spd
km/h
Gust
km/h
Spd
kts
Gust
kts
30/11:30pm 22.0 23.0 19.5 86 1.6 NNE 13 15 7 8 1015.3 1015.2 0.0
30/11:00pm 22.3 24.1 19.5 84 1.8 NNE 9 13 5 7 1016.0 1015.9 0.0
30/10:30pm 22.6 24.0 19.6 83 1.9 NNE 11 15 6 8 1016.2 1016.1 0.0
30/10:00pm 22.6 24.3 19.4 82 2.0 N 9 13 5 7 1016.3 1016.2 0.0
30/09:30pm 22.6 23.6 19.4 82 2.0 N 13 17 7 9 1016.1 1016.0 0.0
30/09:00pm 22.6 23.8 19.0 80 2.3 N 11 15 6 8 1016.2 1016.1 0.0
30/08:30pm 22.8 23.6 19.0 79 2.4 N 13 17 7 9 1015.9 1015.8 0.0
30/08:00pm 23.0 24.2 19.0 78 2.5 N 11 15 6 8 1015.9 1015.8 0.0
30/07:30pm 23.1 24.3 19.1 78 2.5 N 11 15 6 8 1015.8 1015.7 0.0
30/07:00pm 23.3 24.1 19.0 77 2.7 NNE 13 17 7 9 1015.3 1015.2 0.0
30/06:30pm 23.5 23.6 19.2 77 2.7 NNE 17 20 9 11 1014.5 1014.4 0.0
30/06:00pm 23.8 23.5 19.1 75 3.0 NE 19 22 10 12 1014.1 1014.0 0.0
30/05:30pm 24.3 23.6 18.7 71 3.6 NE 20 24 11 13 1013.7 1013.6 0.0
30/05:00pm 25.0 24.6 19.4 71 3.6 NNE 20 24 11 13 1013.5 1013.4 0.0
30/04:30pm 25.7 25.1 18.9 66 4.3 NNE 20 28 11 15 1013.3 1013.2 0.0
30/04:00pm 27.0 26.6 18.8 60 5.3 NNE 19 30 10 16 1013.2 1013.1 0.0
30/03:30pm 27.6 26.9 18.6 58 5.8 NNE 20 32 11 17 1013.2 1013.1 0.0
30/03:00pm 27.8 26.6 17.6 53 6.4 NE 20 30 11 16 1013.3 1013.2 0.0
30/02:30pm 28.4 27.2 17.6 52 6.8 NE 20 30 11 16 1013.3 1013.2 0.0
30/02:00pm 28.3 27.2 17.8 53 6.7 NE 20 32 11 17 1013.7 1013.6 0.0
30/01:30pm 28.3 27.7 17.5 52 6.8 NE 17 24 9 13 1014.1 1014.0 0.0
30/01:00pm 28.4 28.3 17.9 53 6.7 NNE 15 20 8 11 1014.5 1014.4 0.0
30/12:30pm 27.3 26.4 18.3 58 5.7 NNE 20 26 11 14 1014.7 1014.6 0.0
30/12:00pm 27.3 27.1 18.6 59 5.6 N 17 26 9 14 1015.1 1015.0 0.0
30/11:30am 26.6 26.4 18.5 61 5.2 N 17 22 9 12 1015.7 1015.6 0.0
30/11:00am 27.1 28.8 18.1 58 5.7 WSW 6 17 3 9 1016.2 1016.1 0.0
30/10:30am 27.0 28.4 17.8 57 5.8 NNE 7 13 4 7 1016.8 1016.7 0.0
30/10:00am 25.8 26.6 17.4 59 5.2 N 9 15 5 8 1017.3 1017.2 0.0
30/09:30am 26.0 26.3 17.1 58 5.5 E 11 17 6 9 1017.3 1017.2 0.0
30/09:00am 26.3 27.1 17.4 58 5.6 E 9 19 5 10 1017.5 1017.4 0.0
30/08:30am 25.3 26.5 18.2 64 4.5 ESE 9 13 5 7 1017.5 1017.4 0.0
30/08:00am 25.4 26.6 19.8 71 3.6 ESE 13 17 7 9 1017.4 1017.3 0.0
30/07:30am 23.8 24.7 20.1 80 2.4 SE 15 19 8 10 1017.3 1017.2 0.0
30/07:00am 22.1 22.7 20.2 89 1.2 SE 17 20 9 11 1017.1 1017.0 0.0
30/06:30am 21.1 22.8 20.1 94 0.6 SSE 11 15 6 8 1016.9 1016.8 0.0
30/06:20am 20.6 22.5 19.8 95 0.5 SSE 9 13 5 7 1016.9 1016.8 0.0
30/06:00am 20.2 22.0 19.5 96 0.4 S 9 13 5 7 1016.6 1016.5 0.0
30/05:30am 19.8 21.9 19.3 97 0.3 SSE 7 9 4 5 1016.3 1016.2 0.0
30/05:00am 19.8 21.4 19.1 96 0.4 S 9 11 5 6 1015.9 1015.8 0.0
30/04:30am 19.9 21.5 19.2 96 0.4 S 9 13 5 7 1015.4 1015.3 0.0
30/04:00am 20.2 21.6 19.5 96 0.4 S 11 13 6 7 1015.2 1015.1 0.0
30/03:43am 20.2 21.9 19.4 95 0.5 S 9 11 5 6 1015.1 1015.0 0.0
30/03:30am 20.3 22.1 19.5 95 0.5 S 9 13 5 7 1014.9 1014.8 0.0
30/03:13am 20.3 22.1 19.6 96 0.4 SSE 9 11 5 6 1014.8 1014.7 0.0
30/03:00am 20.2 21.9 19.4 95 0.5 SSE 9 15 5 8 1014.8 1014.7 0.0
30/02:37am 20.2 21.9 19.4 95 0.5 S 9 13 5 7 1014.8 1014.7 0.0
30/02:30am 20.3 21.7 19.5 95 0.5 S 11 15 6 8 1014.9 1014.8 0.0
30/02:00am 20.4 22.1 19.4 94 0.6 S 9 11 5 6 1015.0 1014.9 0.0
30/01:30am 20.7 22.5 19.5 93 0.8 SSE 9 11 5 6 1015.2 1015.1 0.0
30/01:00am 21.0 22.8 19.6 92 0.9 SSE 9 13 5 7 1015.3 1015.2 0.0
30/12:30am 21.2 23.1 19.7 91 1.0 S 9 13 5 7 1015.4 1015.3 0.0
30/12:00am 21.5 23.9 20.0 91 1.0 SSE 7 9 4 5 1015.7 1015.6 0.0
 
Date/Time
EST
Temp
°C
App
Temp
°C
Dew
Point
Rel
Hum
%
Delta-T
°C
Wind Press
QNH
hPa
Press
MSL
hPa
Rain
since 9 am
mm
Dir
 
Spd
km/h
Gust
km/h
Spd
kts
Gust
kts
29/11:30pm 21.7 23.9 20.3 92 0.9 SSE 9 13 5 7 1016.0 1015.9 0.0
29/11:08pm 21.7 24.0 20.7 94 0.6 S 9 13 5 7 1016.0 1015.9 0.0
29/11:00pm 21.5 24.0 20.3 93 0.8 S 7 11 4 6 1016.0 1015.9 0.0
29/10:30pm 21.8 24.7 20.6 93 0.8 SE 6 7 3 4 1016.1 1016.0 0.0
29/10:25pm 21.8 24.7 20.6 93 0.8 SE 6 7 3 4 1016.1 1016.0 0.0
29/10:00pm 21.8 24.5 20.3 91 1.0 ESE 6 7 3 4 1016.2 1016.1 0.0
29/09:30pm 22.2 25.0 20.5 90 1.1 E 6 7 3 4 1016.0 1015.9 0.0
29/09:00pm 22.3 24.5 20.4 89 1.2 E 9 9 5 5 1016.0 1015.9 0.0
29/08:30pm 22.9 25.6 20.6 87 1.5 E 7 11 4 6 1016.0 1015.9 0.0
29/08:00pm 23.1 25.4 20.6 86 1.6 ENE 9 13 5 7 1015.7 1015.6 0.0
29/07:30pm 23.3 24.7 20.4 84 1.9 ENE 13 17 7 9 1015.3 1015.2 0.0
29/07:00pm 23.7 25.1 20.4 82 2.1 NE 13 17 7 9 1015.1 1015.0 0.0
29/06:30pm 24.0 25.0 20.3 80 2.4 NE 15 17 8 9 1014.6 1014.5 0.0

Other Formats:

Comma delimited format used in spreadsheet applications
http://www.bom.gov.au/fwo/IDQ60801/IDQ60801.94387.axf

JavaScript Object Notation format (JSON) in row-major order
http://www.bom.gov.au/fwo/IDQ60801/IDQ60801.94387.json